Date,TemperatureHighF,TemperatureAvgF,TemperatureLowF,DewpointHighF,DewpointAvgF,DewpointLowF,HumidityHigh,HumidityAvg,HumidityLow,PressureMaxIn,PressureMinIn,WindSpeedMaxMPH,WindSpeedAvgMPH,GustSpeedMaxMPH,PrecipitationSumIn
2013-1-8,52.9,48.7,41.8,48.7,45.8,39.4,95,90,82,30.08,29.78,31,8,31,0.86
2013-1-9,50.5,40.3,34.4,47.4,37.9,32.6,94,91,84,30.01,29.73,21,4,21,1.44
2013-1-10,38.4,35.8,30.8,35.2,32.9,28.8,93,89,84,30.19,30.00,10,1,10,0.05
2013-1-11,34.2,29.9,26.9,30.2,27.4,24.8,93,90,81,30.40,30.18,8,1,8,0.01
2013-1-12,36.5,29.9,26.6,29.1,25.6,23.8,94,85,64,30.52,30.39,14,1,14,0.00
2013-1-13,35.7,30.0,25.3,29.2,25.8,23.0,92,85,63,30.57,30.51,6,0,6,0.01
2013-1-14,33.7,33.2,32.6,29.8,29.0,28.0,86,85,83,30.59,30.54,9,0,9,0.00
2013-1-17,37.4,35.5,32.8,35.2,33.6,31.3,94,93,91,30.45,30.37,3,0,3,0.01
2013-1-18,36.5,33.3,31.3,35.2,31.9,29.8,95,95,94,30.42,30.34,10,1,10,0.00
2013-1-19,34.8,32.6,29.9,33.2,31.2,28.6,95,94,93,30.46,30.41,10,1,10,0.00
2013-1-20,39.7,33.7,30.9,35.9,31.9,29.6,96,93,85,30.47,30.34,9,1,9,0.00
2013-1-21,34.5,32.0,29.4,33.5,30.8,28.1,96,95,94,30.35,30.21,6,0,6,0.01
2013-1-22,39.0,34.3,30.5,35.4,32.1,29.2,95,92,81,30.22,29.97,5,0,5,0.00
2013-1-23,42.7,40.5,37.4,40.2,37.0,31.1,93,87,69,30.20,29.91,12,1,12,0.31
2013-1-24,45.4,42.6,40.8,40.3,38.1,35.1,93,84,68,30.28,30.11,11,0,11,0.17
2013-1-25,51.0,45.4,41.6,44.8,42.0,38.9,95,88,75,30.12,29.99,15,1,15,0.03
2013-1-26,44.6,42.3,40.5,40.7,38.8,37.1,92,87,82,30.10,29.95,15,2,15,0.43
2013-1-27,42.4,40.9,39.8,38.9,37.4,36.0,92,88,83,30.12,30.05,18,3,18,0.14
2013-1-28,42.2,40.9,39.3,40.3,38.6,36.9,93,92,90,30.15,30.07,12,1,12,0.42
2013-1-29,46.7,44.4,41.9,44.9,42.5,39.7,94,93,90,30.40,30.15,16,2,16,0.50
2013-1-30,47.4,46.1,44.0,46.1,44.8,42.2,96,95,93,30.44,30.39,9,1,9,0.12
2013-1-31,49.2,46.8,45.4,45.0,44.5,43.7,96,92,83,30.46,30.36,17,2,17,0.11